Location: Prairie State College
(41.5244°N, 87.6382°W)
Time: 12:38:26
(UTC-05:00)

ISS - All Passes

Search period start: 24 September 2017 00:00
Search period end: 04 October 2017 00:00
Orbit: 401 x 407 km, 51.6° (Epoch: 25 September)

Date Brightness Start Highest point End Pass type
(mag) Time Alt. Az. Time Alt. Az. Time Alt. Az.
24 Sep - 01:27:46 10° NNW 01:30:12 19° NNE 01:32:39 10° ENE night (unlit)
24 Sep - 03:03:49 10° NW 03:07:07 74° NNE 03:10:24 10° ESE night (unlit)
24 Sep - 04:41:39 10° WSW 04:43:11 13° SW 04:44:43 10° SSW night (unlit)
24 Sep - 19:44:21 10° S 19:46:49 20° SE 19:49:18 10° E visible
24 Sep - 21:19:53 10° WSW 21:23:04 48° NNW 21:26:17 10° NE visible
24 Sep - 22:57:58 10° NW 23:00:09 16° N 23:02:20 10° NNE night (unlit)
25 Sep - 00:35:29 10° NNW 00:37:36 16° N 00:39:43 10° NE night (unlit)
25 Sep - 02:11:34 10° NW 02:14:43 42° NNE 02:17:52 10° ESE night (unlit)
25 Sep - 03:48:20 10° W 03:51:03 24° SW 03:53:45 10° S night (unlit)
25 Sep - 18:54:00 10° SE 18:54:41 11° SE 18:55:24 10° ESE daylight
25 Sep - 20:27:25 10° SW 20:30:41 87° NW 20:33:58 10° NE visible
25 Sep - 22:05:01 10° WNW 22:07:32 20° NNW 22:10:04 10° NNE visible
25 Sep - 23:43:03 10° NNW 23:44:57 14° N 23:46:51 10° NE night (unlit)
26 Sep - 01:19:20 10° NW 01:22:14 27° NNE 01:25:08 10° E night (unlit)
26 Sep - 02:55:39 10° WNW 02:58:49 45° SW 03:01:59 10° SSE night (unlit)
26 Sep - 19:35:13 10° SW 19:38:22 48° SE 19:41:33 10° ENE visible
26 Sep - 21:12:07 10° W 21:14:58 27° NNW 21:17:50 10° NE visible
26 Sep - 22:50:24 10° NW 22:52:16 14° N 22:54:09 10° NNE night (unlit)
27 Sep - 00:27:07 10° NNW 00:29:40 20° NNE 00:32:14 10° ENE night (unlit)
27 Sep - 02:03:12 10° NW 02:06:30 89° SW 02:09:48 10° SE night (unlit)
27 Sep - 03:42:21 10° SW 03:42:29 10° SW 03:42:36 10° SW night (unlit)
27 Sep - 18:43:23 10° SSW 18:46:07 25° SE 18:48:52 10° ENE daylight
27 Sep - 20:19:21 10° W 20:22:27 40° NNW 20:25:36 10° NE visible
27 Sep - 21:57:32 10° NW 21:59:36 15° N 22:01:40 10° NNE visible
27 Sep - 23:34:50 10° NNW 23:37:03 17° NNE 23:39:15 10° NE night (unlit)
28 Sep - 01:10:52 10° NW 01:14:06 50° NNE 01:17:18 10° ESE night (unlit)
28 Sep - 02:47:54 10° W 02:50:20 19° SW 02:52:45 10° S night (unlit)
28 Sep - 17:52:18 10° SSE 17:53:56 13° SE 17:55:35 10° E daylight
28 Sep - 19:26:45 10° WSW 19:30:00 70° NNW 19:33:17 10° NE visible
28 Sep - 21:04:33 10° WNW 21:06:56 18° NNW 21:09:20 10° NNE visible
28 Sep - 22:42:25 10° NNW 22:44:22 15° N 22:46:18 10° NE night (unlit)
29 Sep - 00:18:36 10° NW 00:21:36 31° NNE 00:24:35 10° E night (unlit)
29 Sep - 01:55:03 10° WNW 01:58:05 36° SW 02:01:08 10° SSE night (unlit)
29 Sep - 18:34:25 10° SW 18:37:37 61° SE 18:40:52 10° ENE daylight
29 Sep - 20:11:35 10° WNW 20:14:19 24° NNW 20:17:04 10° NE visible
29 Sep - 21:49:48 10° NW 21:51:39 14° N 21:53:30 10° NNE visible
29 Sep - 23:26:21 10° NW 23:29:01 22° NNE 23:31:41 10° ENE night (unlit)
30 Sep - 01:02:29 10° WNW 01:05:46 72° SW 01:09:02 10° SE night (unlit)
30 Sep - 17:42:24 10° SSW 17:45:18 30° SE 17:48:14 10° ENE daylight
30 Sep - 19:18:43 10° W 19:21:44 34° NNW 19:24:47 10° NE visible
30 Sep - 20:56:57 10° NW 20:58:55 15° N 21:00:55 10° NNE visible
30 Sep - 22:34:03 10° NNW 22:36:22 18° NNE 22:38:41 10° ENE night (unlit)
01 Oct - 00:10:05 10° NW 00:13:21 61° NNE 00:16:36 10° ESE night (unlit)
01 Oct - 01:47:26 10° W 01:49:29 16° SW 01:51:32 10° S night (unlit)
01 Oct - 16:50:56 10° S 16:53:04 16° SE 16:55:12 10° E daylight
01 Oct - 18:26:00 10° WSW 18:29:13 57° NNW 18:32:28 10° NE daylight
01 Oct - 20:03:57 10° WNW 20:06:13 17° NNW 20:08:29 10° NNE visible
01 Oct - 21:41:39 10° NNW 21:43:40 15° N 21:45:40 10° NE visible
01 Oct - 23:17:45 10° NW 23:20:50 36° NNE 23:23:54 10° E night (unlit)
02 Oct - 00:54:21 10° WNW 00:57:14 29° SW 01:00:08 10° SSE night (unlit)
02 Oct - 17:33:31 10° SW 17:36:46 76° SE 17:40:03 10° ENE daylight
02 Oct - 19:10:55 10° WNW 19:13:33 22° NNW 19:16:10 10° NE visible
02 Oct - 20:49:04 10° NNW 20:50:55 14° N 20:52:46 10° NE visible
02 Oct - 22:25:28 10° NW 22:28:15 25° NNE 22:31:02 10° E night (unlit)
03 Oct - 00:01:40 10° WNW 00:04:54 57° SW 00:08:08 10° SE night (unlit)
03 Oct - 16:41:20 10° SSW 16:44:24 38° SE 16:47:28 10° ENE daylight
03 Oct - 18:17:58 10° W 18:20:55 30° NNW 18:23:52 10° NE daylight
03 Oct - 19:56:15 10° NW 19:58:09 14° N 20:00:04 10° NNE visible
03 Oct - 21:33:09 10° NNW 21:35:35 19° NNE 21:38:00 10° ENE visible
03 Oct - 23:09:11 10° NW 23:12:28 75° NE 23:15:45 10° ESE night (unlit)
